Weather History for West Yellowstone, MT

Change the Weather History Date:

Tuesday, November 6, 2012

  Actual Average Record
Temperature  
Mean Temperature 39 °F -  
Max Temperature 50 °F 38 °F 57 °F (2010)
Min Temperature 28 °F 18 °F 17 °F (2011)
Degree Days  
Heating Degree Days 26    
Moisture  
Dew Point -    
Average Humidity    
Maximum Humidity    
Minimum Humidity    
Precipitation  
Precipitation 0.00 in - - ()
Sea Level Pressure  
Sea Level Pressure 30.32 in    
Wind  
Wind Speed 3 mph (SSW)    
Max Wind Speed 14 mph    
Max Gust Speed 21 mph    
Visibility 10 miles    
Events      
Averages and records for this station are not official NWS values.
T = Trace of Precipitation, MM = Missing Value Source: NWS Daily Summary

Daily Weather History Graph

Daily Weather History Graph

Search for Another Location

Airport:

Trip Planner

Search our weather history database for the weather conditions in past years. The results will help you decide how hot, cold, wet, or windy it might be!

Date:

Astronomy

Nov. 06, 2012 Rise Set
Actual Time 7:09 AM MST 5:05 PM MST
Civil Twilight 6:38 AM MST 5:36 PM MST
Nautical Twilight 6:04 AM MST 6:11 PM MST
Astronomical Twilight 5:29 AM MST 6:45 PM MST
Moon 11:52 PM MST (11/6) 1:01 PM MST (11/6)
Length of Visible Light 10h 57m
Length of Day
9h 55m
Waning Gibbous, 52% of the Moon is Illuminated
Nov 6
Waning Gibbous
Nov 6
Last Quarter
Nov 13
New
Nov 20
First Quarter
Nov 28
Full

Hourly Weather History & Observations

Time (MST) Temp. Windchill Dew Point Humidity Pressure Visibility Wind Dir Wind Speed Gust Speed Precip Events Conditions
12:10 AM 32.0 °F 28.7 °F - N/A% 30.36 in 10.0 mi ENE 3.5 mph - N/A   Clear
12:30 AM 32.0 °F - - N/A% 30.36 in 10.0 mi Calm Calm - N/A   Clear
12:50 AM 30.2 °F - - N/A% 30.37 in 10.0 mi Calm Calm - N/A   Clear
1:10 AM 28.4 °F 23.3 °F - N/A% 30.38 in 10.0 mi NNE 4.6 mph - N/A   Partly Cloudy
1:30 AM 28.4 °F - - N/A% 30.37 in 10.0 mi Calm Calm - N/A   Clear
1:50 AM 28.4 °F 24.6 °F - N/A% 30.37 in 10.0 mi NNW 3.5 mph - N/A   Clear
2:10 AM 28.4 °F - - N/A% 30.37 in 10.0 mi Calm Calm - N/A   Partly Cloudy
2:30 AM 28.4 °F - - N/A% 30.37 in 10.0 mi Calm Calm - N/A   Partly Cloudy
2:50 AM 30.2 °F 24.3 °F - N/A% 30.38 in 10.0 mi NE 5.8 mph - N/A   Mostly Cloudy
3:10 AM 32.0 °F - - N/A% 30.37 in 10.0 mi Calm Calm - N/A   Overcast
3:30 AM 32.0 °F 28.7 °F - N/A% 30.37 in 10.0 mi South 3.5 mph - N/A   Overcast
3:50 AM 32.0 °F 28.7 °F - N/A% 30.37 in 10.0 mi SSW 3.5 mph - N/A   Overcast
4:10 AM 32.0 °F - - N/A% 30.37 in 10.0 mi Calm Calm - N/A   Overcast
4:30 AM 32.0 °F - - N/A% 30.37 in 10.0 mi Calm Calm - N/A   Overcast
4:50 AM 32.0 °F - - N/A% 30.37 in 10.0 mi Calm Calm - N/A   Overcast
5:10 AM 32.0 °F - - N/A% 30.37 in 10.0 mi Calm Calm - N/A   Overcast
5:30 AM 32.0 °F - - N/A% 30.38 in 10.0 mi Calm Calm - N/A   Overcast
5:50 AM 32.0 °F - - N/A% 30.37 in 10.0 mi Calm Calm - N/A   Overcast
6:10 AM 33.8 °F - - N/A% 30.37 in 10.0 mi Calm Calm - N/A   Overcast
6:30 AM 33.8 °F - - N/A% 30.37 in 10.0 mi Calm Calm - N/A   Overcast
6:50 AM 33.8 °F - - N/A% 30.37 in 10.0 mi Calm Calm - N/A   Overcast
7:10 AM 33.8 °F - - N/A% 30.37 in 10.0 mi Calm Calm - N/A   Overcast
7:30 AM 33.8 °F - - N/A% 30.38 in 10.0 mi Calm Calm - N/A   Overcast
7:50 AM 33.8 °F - - N/A% 30.38 in 10.0 mi Calm Calm - N/A   Overcast
8:10 AM 35.6 °F - - N/A% 30.39 in 10.0 mi Calm Calm - N/A   Overcast
8:30 AM 35.6 °F - - N/A% 30.39 in 10.0 mi Calm Calm - N/A   Overcast
8:50 AM 35.6 °F - - N/A% 30.39 in 10.0 mi Calm Calm - N/A   Overcast
9:10 AM 37.4 °F 34.9 °F - N/A% 30.38 in 10.0 mi SE 3.5 mph - N/A   Overcast
9:30 AM 39.2 °F 35.9 °F - N/A% 30.38 in 10.0 mi South 4.6 mph - N/A   Overcast
9:50 AM 42.8 °F 37.5 °F - N/A% 30.38 in 10.0 mi SW 9.2 mph - N/A   Overcast
10:10 AM 42.8 °F 37.0 °F - N/A% 30.38 in 10.0 mi SW 10.4 mph - N/A   Overcast
10:30 AM 44.6 °F 39.7 °F - N/A% 30.38 in 10.0 mi SSW 9.2 mph 16.1 mph N/A   Overcast
10:50 AM 44.6 °F 38.8 °F - N/A% 30.38 in 10.0 mi SW 11.5 mph 17.3 mph N/A   Overcast
11:10 AM 44.6 °F 39.7 °F - N/A% 30.37 in 10.0 mi SW 9.2 mph - N/A   Overcast
11:30 AM 44.6 °F 39.7 °F - N/A% 30.37 in 10.0 mi SW 9.2 mph 17.3 mph N/A   Overcast
11:50 AM 46.4 °F 41.5 °F - N/A% 30.36 in 10.0 mi SW 10.4 mph - N/A   Overcast
12:10 PM 46.4 °F 41.9 °F - N/A% 30.35 in 10.0 mi SSW 9.2 mph - N/A   Mostly Cloudy
12:30 PM 48.2 °F - - N/A% 30.34 in 10.0 mi SSW 8.1 mph 18.4 mph N/A   Scattered Clouds
12:50 PM 48.2 °F - - N/A% 30.33 in 10.0 mi SW 11.5 mph - N/A   Partly Cloudy
1:10 PM 48.2 °F - - N/A% 30.33 in 10.0 mi SSW 9.2 mph - N/A   Partly Cloudy
1:30 PM 48.2 °F - - N/A% 30.32 in 10.0 mi SW 11.5 mph - N/A   Partly Cloudy
1:50 PM 50.0 °F - - N/A% 30.31 in 10.0 mi SSW 9.2 mph - N/A   Clear
2:10 PM 50.0 °F - - N/A% 30.31 in 10.0 mi SW 9.2 mph 16.1 mph N/A   Clear
2:30 PM 50.0 °F - - N/A% 30.30 in 10.0 mi SSW 13.8 mph - N/A   Clear
2:50 PM 50.0 °F - - N/A% 30.30 in 10.0 mi SW 9.2 mph 17.3 mph N/A   Clear
3:10 PM 50.0 °F - - N/A% 30.29 in 10.0 mi SSW 13.8 mph 20.7 mph N/A   Clear
3:30 PM 50.0 °F - - N/A% 30.29 in 10.0 mi SW 9.2 mph - N/A   Clear
3:50 PM 50.0 °F - - N/A% 30.29 in 10.0 mi SW 10.4 mph - N/A   Clear
4:10 PM 50.0 °F - - N/A% 30.29 in 10.0 mi SW 6.9 mph - N/A   Clear
4:30 PM 48.2 °F - - N/A% 30.28 in 10.0 mi SW 8.1 mph - N/A   Clear
4:50 PM 48.2 °F - - N/A% 30.28 in 10.0 mi SSW 5.8 mph - N/A   Clear
5:10 PM 46.4 °F 43.5 °F - N/A% 30.28 in 10.0 mi SW 5.8 mph - N/A   Clear
5:30 PM 46.4 °F 43.5 °F - N/A% 30.27 in 10.0 mi SSW 5.8 mph - N/A   Clear
5:50 PM 46.4 °F 41.5 °F - N/A% 30.27 in 10.0 mi South 10.4 mph - N/A   Clear
6:10 PM 42.8 °F - - N/A% 30.26 in 10.0 mi Calm Calm - N/A   Clear
6:30 PM 39.2 °F - - N/A% 30.26 in 10.0 mi Calm Calm - N/A   Clear
6:50 PM 37.4 °F - - N/A% 30.25 in 10.0 mi Calm Calm - N/A   Clear
7:10 PM 35.6 °F - - N/A% 30.25 in 10.0 mi Calm Calm - N/A   Clear
7:30 PM 35.6 °F 32.8 °F - N/A% 30.24 in 10.0 mi WSW 3.5 mph - N/A   Clear
7:50 PM 37.4 °F 34.9 °F - N/A% 30.24 in 10.0 mi SSE 3.5 mph - N/A   Clear
8:10 PM 35.6 °F - - N/A% 30.23 in 10.0 mi Calm Calm - N/A   Clear
8:30 PM 32.0 °F 27.5 °F - N/A% 30.23 in 10.0 mi ENE 4.6 mph - N/A   Clear
8:50 PM 32.0 °F 28.7 °F - N/A% 30.22 in 10.0 mi NE 3.5 mph - N/A   Clear
9:10 PM 32.0 °F - - N/A% 30.22 in 10.0 mi Calm Calm - N/A   Clear
9:30 PM 30.2 °F - - N/A% 30.22 in 10.0 mi Calm Calm - N/A   Clear
9:50 PM 28.4 °F - - N/A% 30.22 in 10.0 mi Calm Calm - N/A   Clear
10:10 PM 30.2 °F - - N/A% 30.22 in 10.0 mi Calm Calm - N/A   Clear
10:30 PM 28.4 °F - - N/A% 30.21 in 10.0 mi Calm Calm - N/A   Clear
10:50 PM 28.4 °F 24.6 °F - N/A% 30.21 in 10.0 mi SSE 3.5 mph - N/A   Clear
11:10 PM 28.4 °F - - N/A% 30.20 in 10.0 mi Calm Calm - N/A   Clear
11:30 PM 28.4 °F 24.6 °F - N/A% 30.20 in 10.0 mi South 3.5 mph - N/A   Clear
11:50 PM 28.4 °F - - N/A% 30.20 in 10.0 mi Calm Calm - N/A   Clear